Tracking 28790 objects as of 19-Apr-2024
HD Live streaming from Space Station
objects crossing your sky now

COSMOS 2251 DEB

Track COSMOS 2251 DEB now!
10-day predictions


NORAD ID: 34420
Int'l Code: 1993-036RM
Perigee: 605.0 km
Apogee: 759.1 km
Inclination: 74.0 °
Period: 98.2 minutes
Semi major axis: 7053 km
RCS: 0.0188 m2 (small)
Launch date: June 16, 1993
Source: Commonwealth of Independent States (former USSR) (CIS)
Launch site: PLESETSK MISSILE AND SPACE COMPLEX (PKMTR)

Note: This is SATELLITE DEBRIS
Your satellite tracking list
Your tracking list is empty




NASA's NSSDC Master Catalog

Two Line Element Set (TLE):
1 34420U 93036RM  24109.63301878  .00002867  00000-0  48782-3 0  9991
2 34420  74.0357 188.3629 0109271 103.1819  16.3953 14.65671586809307
Source of the keplerian elements: AFSPC